Location: Middle Street
(51.7167°N, 0.0333°E)
Time: 19:54:18
(UTC+00:00)

USA-17 - Pass Details

Date: 20 January 2021
Orbit: 389 x 1775 km, 63.3° (Epoch: 27 February)

Event Time Altitude Azimuth Distance (km) Brightness Sun altitude
Rises 17:21:59 0° 219° (SW) 2,699 9.5 -8.3°
Reaches altitude 10° 17:24:23 10° 217° (SW) 1,665 8.3 -8.6°
Maximum altitude 17:27:54 73° 134° (SE) 447 4.3 -9.1°
Enters shadow 17:30:37 13° 49° (NE) 1,293 6.1 -9.5°
